Weather in Yamnik

Russia / Novgorod Oblast     57°50′29″N   32°29′13″E
В апреле 2022 года жителям России запретили посещать сайт meteo.paraplan.net по решению Генеральной прокуратуры. Аудитория сайта уменьшилась в 10 раз. Владельцы сайта не видят смысла в поддержке погодного сервера в таких условиях. Сайт будет закрыт в октябре.
temp.,
°C
wind,
m/s
gust,
m/s
humid.,
%
clouds,
%
prec.,
mm/h
press.,
hPa
HPBL,
m
25 september, sun
sun2500:00+6nnw51195100 2.3 1005816
03:00+7nnw41196100 3.7 1004688
06:00+7nnw41097100 2.6 1004693
09:00+7nnw4897100 5.5 1004607
12:00+7nnw3797100 1.1 1005523
15:00+7nnw2498100 2.8 1006317
18:00+8nw139897 0.1 1006173
21:00+6nw119941 0.2 100718
26 september, mon
mon2600:00+6nnw0098100 0.0 100723
03:00+6wsw1199100 0.0 100853
06:00+7w1198100 0.0 100864
09:00+7w1296100 0.0 1009169
12:00+8w2289100 0.0 1009452
15:00+9w2281100 0.1 1010619
18:00+8sw129199 0.1 101072
21:00+7ssw129498 0.1 101142
27 september, tue
tue2700:00+7ssw1193100 0.0 101119
03:00+6sse0094100 0.0 101112
06:00+6se1194100 0.0 101010
09:00+7ese1287100 0.0 1011129
12:00+10s2380100 0.1 1012525
15:00+9sse2390100 1.0 1012275
18:00+8ese279394 0.4 1012244
21:00+7ese4129183 0.4 1012348
28 september, wed
wed2800:00+7ese412905 0.0 1012334
03:00+6ese4139074 0.0 1011364
06:00+7e51488100 0.0 1011511
09:00+8e61482100 0.0 1010796
12:00+10e61572100 0.0 10091068
15:00+11ese71568100 0.0 10071148
18:00+10e71577100 0.1 10071176
21:00+7e71586100 0.9 1008980
29 september, thu
thu2900:00+7e61488100 0.7 1008827
03:00+6e51391100 3.3 1008742
06:00+6ese51391100 1.8 1008673
09:00+6ese51192100 2.2 1010605
12:00+7se41092100 1.2 1011545
15:00+7se489283 1.5 1013444
18:00+7se4992100 0.0 1014393
21:00+7ese4109383 0.0 1016340